Showing default

CARTOSAT 2C, 41599

Orbit data source: Space-Track

CARTOSAT 2C, 41599 is a payload satellite owned by ISRO (IN) in SSO that was launched on Wed, 22 Jun 2016 UTC via a PSLV-XL launch vehicle from the Sirharikota (SRI). Payload-class satellites include a variety of spacecraft equipped with specific instruments for various scientific and technological missions. These include communications satellites like Starlink; space stations such as the ISS; scientific satellites like the Hubble; Earth observation satellites from companies like Planet Labs, Umbra, and HawkEye 360; GPS; miniature CubeSats for education and research; and military/defense satellites.

Loading next visibility...
Identifier
41599, 2016-040A
Orbit
SSO
Country
Flag of ININ / IND
Related business
Manufacturer
ISRO
Mission
Operational Defense Imaging
Bus & Motor
IRS-2, AOCS
Mass
727 kg wet, ~600 kg dry
Launch date (UTC)
2016-06-22 (10 years ago)
Launch vehicle
PSLV-XL
Launch site
Sirharikota (SRI)
Object type
Payload
Rocket body
Debris
Shape & HBR
Hex Cyl + 2 Pan, 3.0 m
Radar Cross Section
8.699 m², Large (>1 m²)

Expand to show TLE details & history
Last TLE update: 19 hours ago

TLE from 19 hours ago
0 CARTOSAT 2C
1 41599U 16040A   26145.60107368  .00004895  00000-0  23509-3 0  9996
2 41599  97.4495 205.8876 0009139 204.2602 155.8204 15.19278062550288
Epoch: 2026-05-25T14:25Z
TLE epoch observation values (Epoch: 2026-05-25T14:25:32.765Z)
Latitude
-0.00001°
Longitude
106.31455°
Altitude
516.853 km
Speed
7.602 km/s
True Right ascension
13h 43m 33s
True Declination
0° 00' 00"
Sunlit
Object was in full shadow at epoch
Visualization orbit readout
Latitude
Unknown
Longitude
Unknown
Altitude
Unknown
Speed
Unknown
Apparent Right ascension
Unknown
Apparent Declination
Unknown
Sunlit
N/A
Visualization observer readout
Local Sidereal Time
18:19:52
Azimuth
Unknown
Elevation
Unknown
Doppler factor
Unknown
Orbital elements
Apogee altitude
511.28 km
Perigee altitude
498.699 km
Semi-major axis
6,883.127 km
Eccentricity
0.00091
Inclination
97.4495°
RAAN
205.8876°
Arg. of periapsis
204.2602°
True anomaly
155.86325°
Mean anomaly
155.8204°
Eccentric anomaly
155.84183°
Mean motion
3.80071 °/min
Orbital period
94.72 mins
BSTAR
0.00023509
Loading maneuver chart data...
Computing Atmospheric mass density...

Documentation

Showing up to 5 results
|